TimeAKST,TemperatureF,Dew PointF,Humidity,Sea Level PressureIn,VisibilityMPH,Wind Direction,Wind SpeedMPH,Gust SpeedMPH,PrecipitationIn,Events,Conditions,WindDirDegrees,DateUTC
12:53 AM,25.0,19.9,81,29.75,10.0,North,4.6,-,N/A,,Overcast,10,2013-02-13 09:53:00
1:53 AM,25.0,21.0,85,29.76,10.0,North,4.6,-,N/A,,Overcast,360,2013-02-13 10:53:00
2:53 AM,25.0,21.0,85,29.78,9.0,North,6.9,-,0.00,Snow,Light Snow,360,2013-02-13 11:53:00
3:53 AM,26.1,21.0,81,29.78,10.0,North,4.6,-,0.00,,Overcast,10,2013-02-13 12:53:00
4:53 AM,26.1,21.9,84,29.79,6.0,NNE,5.8,-,0.00,Snow,Light Snow,20,2013-02-13 13:53:00
5:53 AM,25.0,21.0,85,29.78,10.0,NNE,3.5,-,0.00,,Mostly Cloudy,20,2013-02-13 14:53:00
6:53 AM,25.0,21.0,85,29.79,10.0,Calm,Calm,-,N/A,,Overcast,0,2013-02-13 15:53:00
7:53 AM,26.1,21.0,81,29.79,10.0,NNE,3.5,-,N/A,,Mostly Cloudy,30,2013-02-13 16:53:00
8:53 AM,26.1,21.9,84,29.81,10.0,Calm,Calm,-,N/A,,Mostly Cloudy,0,2013-02-13 17:53:00
9:53 AM,26.1,21.9,84,29.81,10.0,East,4.6,-,N/A,,Overcast,80,2013-02-13 18:53:00
10:53 AM,27.0,21.9,81,29.81,10.0,NE,5.8,-,N/A,,Mostly Cloudy,50,2013-02-13 19:53:00
11:53 AM,27.0,21.0,78,29.82,10.0,ENE,5.8,-,N/A,,Mostly Cloudy,60,2013-02-13 20:53:00
12:53 PM,28.9,19.9,69,29.80,10.0,Calm,Calm,-,N/A,,Mostly Cloudy,0,2013-02-13 21:53:00
1:53 PM,28.9,19.0,67,29.80,10.0,NW,3.5,-,N/A,,Mostly Cloudy,310,2013-02-13 22:53:00
2:53 PM,28.9,21.9,75,29.80,10.0,Calm,Calm,-,N/A,,Overcast,0,2013-02-13 23:53:00
3:53 PM,30.0,21.9,72,29.78,10.0,North,3.5,-,N/A,,Overcast,350,2013-02-14 00:53:00
4:53 PM,28.9,23.0,78,29.77,10.0,Calm,Calm,-,N/A,,Overcast,0,2013-02-14 01:53:00
5:53 PM,28.0,24.1,85,29.75,10.0,NW,5.8,-,N/A,,Overcast,320,2013-02-14 02:53:00
6:53 PM,27.0,24.1,89,29.75,10.0,WNW,5.8,-,N/A,,Overcast,300,2013-02-14 03:53:00
7:53 PM,28.0,24.1,85,29.73,10.0,North,4.6,-,N/A,,Overcast,350,2013-02-14 04:53:00
8:53 PM,27.0,23.0,85,29.72,10.0,Calm,Calm,-,N/A,,Overcast,0,2013-02-14 05:53:00
9:53 PM,27.0,23.0,85,29.69,10.0,NNW,5.8,-,N/A,,Overcast,330,2013-02-14 06:53:00
10:53 PM,26.1,21.9,84,29.68,10.0,West,6.9,-,N/A,,Overcast,270,2013-02-14 07:53:00
11:53 PM,27.0,23.0,85,29.67,10.0,NW,9.2,-,N/A,,Overcast,320,2013-02-14 08:53:00